This is the latest recevied weather packets stored in our database for station/object 9M4RBN-3. If no packets are shown the sender has not sent any weather packets the latest 10 day(s).
| Time | Temp. | Humidity | Pressure | Rain* | Wind** | Luminosity | Snow |
|---|---|---|---|---|---|---|---|
| 1778378812 | 27.22° C | 77% | 1015.2 hPa | - | - | - | - |
| 1778377912 | 27.22° C | 75% | 1015.1 hPa | - | - | - | - |
| 1778377012 | 27.22° C | 74% | 1015.1 hPa | - | - | - | - |
| 1778376750 | 26.67° C | 73% | 1014.9 hPa | - | - | - | - |
| 1778376112 | 26.67° C | 73% | 1014.9 hPa | - | - | - | - |
| 1778375212 | 26.67° C | 70% | 1014.8 hPa | - | - | - | - |
| 1778374312 | 26.11° C | 68% | 1014.8 hPa | - | - | - | - |
| 1778373412 | 25.56° C | 65% | 1014.8 hPa | - | - | - | - |
| 1778372512 | 25° C | 59% | 1014.5 hPa | - | - | - | - |
| 1778371612 | 25° C | 52% | 1014.3 hPa | - | - | - | - |
| 1778370712 | 25.56° C | 61% | 1014 hPa | - | - | - | - |
| 1778369812 | 25° C | 70% | 1013.8 hPa | - | - | - | - |
| 1778368912 | 24.44° C | 61% | 1013.8 hPa | - | - | - | - |
| 1778368011 | 24.44° C | 47% | 1013.8 hPa | - | - | - | - |
| 1778367111 | 24.44° C | 47% | 1013.6 hPa | - | - | - | - |
| 1778366211 | 24.44° C | 47% | 1013.5 hPa | - | - | - | - |
| 1778365311 | 24.44° C | 47% | 1013.5 hPa | - | - | - | - |
| 1778364411 | 25° C | 46% | 1013.4 hPa | - | - | - | - |
| 1778363511 | 25° C | 46% | 1013.4 hPa | - | - | - | - |
| 1778362611 | 25° C | 46% | 1013.4 hPa | - | - | - | - |
| 1778361711 | 25.56° C | 46% | 1012.9 hPa | - | - | - | - |
| 1778360811 | 26.11° C | 46% | 1012.9 hPa | - | - | - | - |
| 1778359911 | 26.11° C | 48% | 1013 hPa | - | - | - | - |
| 1778359011 | 27.22° C | 50% | 1013.1 hPa | - | - | - | - |
| 1778358111 | 27.78° C | 61% | 1013.2 hPa | - | - | - | - |
* Rain since midnight (hover to see other rain measurements)
** Current wind speed in m/s (hover to see current wind gust speed)